This is the latest recevied weather packets stored in our database for station/object LU8AQL-WX. If no packets are shown the sender has not sent any weather packets the latest 10 day(s).
| Time | Temp. | Humidity | Pressure | Rain* | Wind** | Luminosity | Snow |
|---|---|---|---|---|---|---|---|
| 1777535970 | 12.22° C | 70% | 1014 hPa | 0 mm | - | - | - |
| 1777535369 | 12.22° C | 70% | 1014 hPa | 0 mm | - | - | - |
| 1777534768 | 12.22° C | 70% | 1014 hPa | 0 mm | - | - | - |
| 1777534167 | 12.22° C | 70% | 1014 hPa | 0 mm | - | - | - |
| 1777533566 | 12.22° C | 70% | 1014 hPa | 0 mm | - | - | - |
| 1777532966 | 12.22° C | 71% | 1014 hPa | 0 mm | - | - | - |
| 1777532365 | 12.22° C | 71% | 1014 hPa | 0 mm | - | - | - |
| 1777531764 | 12.22° C | 71% | 1014 hPa | 0 mm | - | - | - |
| 1777531163 | 12.22° C | 71% | 1014 hPa | 0 mm | - | - | - |
| 1777530562 | 12.22° C | 71% | 1014 hPa | 0 mm | - | - | - |
| 1777529961 | 12.22° C | 71% | 1015 hPa | 0 mm | - | - | - |
| 1777529360 | 12.22° C | 70% | 1015 hPa | 0 mm | - | - | - |
| 1777528760 | 12.22° C | 69% | 1015 hPa | 0 mm | - | - | - |
| 1777528159 | 12.78° C | 69% | 1015 hPa | 0 mm | - | - | - |
| 1777527557 | 12.78° C | 70% | 1015 hPa | 0 mm | - | - | - |
| 1777526957 | 12.22° C | 70% | 1015 hPa | 0 mm | - | - | - |
| 1777526355 | 12.22° C | 69% | 1015 hPa | 0 mm | - | - | - |
| 1777525755 | 12.78° C | 69% | 1015 hPa | 0 mm | - | - | - |
| 1777525154 | 12.78° C | 71% | 1015 hPa | 0 mm | - | - | - |
| 1777524553 | 12.78° C | 70% | 1015 hPa | 0 mm | - | - | - |
| 1777523952 | 12.78° C | 68% | 1015 hPa | 0 mm | - | - | - |
| 1777523350 | 13.33° C | 63% | 1015 hPa | 0 mm | - | - | - |
| 1777522750 | 13.33° C | 63% | 1015 hPa | 0 mm | - | - | - |
| 1777522149 | 13.89° C | 63% | 1015 hPa | 0 mm | - | - | - |
| 1777521548 | 13.33° C | 65% | 1015 hPa | 0 mm | - | - | - |
* Rain latest hour (hover to see other rain measurements)
** Current wind speed in m/s (hover to see current wind gust speed)